www.pogodaiklimat.ru

Погода и климат >> Архив погоды >> Австралия >> Mandora


ПОГОДА в Mandora

  • Прогноз погоды в Mandora
  • Монитор погоды в Mandora
  • Климат города

АРХИВ ПОГОДЫ в Mandora

Время (UTC), дата Ветер
(напр.,м/с)
 
Видим.   Явления Облачность Т
(С)
Тd
(С)
f
(%)
Тe
(С)
Тes
(С)
Комфортность P
(гПа)
Po
(гПа)
Тmin
(С)
Tmax
(С)
R
(мм)
R24
(мм)
S
(см)
01 13.01 С 7 н/о в посл. час дождь {туман} н/о +27.2 +27.2 100 +43 +43 опасность
перегрева
1004.2 1003.3 +24.0
03 13.01 С 7 н/о н/о +29.8 +29.1 96 +52 +52 опасность
перегрева
1004.5 1003.6
04 13.01 С 6 н/о н/о +29.4 +28.0 92 +49 +49 опасность
перегрева
1004.5 1003.6
06 13.01 С 7 н/о н/о +30.8 +28.4 87 +52 +52 опасность
перегрева
1003.9 1003.0
07 13.01 С 7 н/о н/о +31.0 +28.4 86 +52 +52 опасность
перегрева
1003.5 1002.6
09 13.01 С 6 н/о н/о +30.6 +27.0 81 +48 +48 опасность
перегрева
1004.0 1003.1
10 13.01 С 5 н/о н/о +29.7 +26.7 84 +46 +46 опасность
перегрева
1004.8 1003.9
12 13.01 С 4 н/о н/о +28.5 +26.5 89 +44 +44 опасность
перегрева
1006.1 1005.2
13 13.01 С 4 н/о н/о +28.3 +25.9 87 +42 +42 опасность
перегрева
1006.6 1005.7 +32.3
15 13.01 С 3 н/о н/о +27.6 +26.0 91 +41 +41 опасность
перегрева
1007.5 1006.6
16 13.01 С 3 н/о н/о +27.6 +26.0 91 +41 +41 опасность
перегрева
1007.2 1006.3
18 13.01 С 3 н/о н/о +27.0 +25.2 90 +39 +39 очень
душно
1006.7 1005.8
19 13.01 СВ 2 н/о н/о +26.3 +25.1 93 +38 +38 очень
душно
1007.1 1006.2
21 13.01 СЗ 2 н/о н/о +25.4 +25.4 100 +37 +37 очень
душно
1007.4 1006.5
22 13.01 С 2 н/о н/о +25.5 +25.5 100 +37 +37 очень
душно
1008.1 1007.2
00 14.01 В 2 н/о н/о +29.3 +27.1 88 +46 +46 опасность
перегрева
1008.9 1008.0
01 14.01 С 3 н/о н/о +30.2 +25.7 77 +45 +45 опасность
перегрева
1009.3 1008.4 +25.3
03 14.01 С 4 н/о н/о +32.2 +25.0 66 +46 +46 опасность
перегрева
1009.1 1008.2
04 14.01 С 3 н/о н/о +32.9 +24.4 61 +45 +45 опасность
перегрева
1008.5 1007.6
06 14.01 С 4 н/о н/о +33.1 +23.1 56 +44 +44 опасность
перегрева
1007.1 1006.2
07 14.01 С 5 н/о н/о +31.9 +25.2 68 +46 +46 опасность
перегрева
1006.2 1005.3
09 14.01 С 4 н/о н/о +32.2 +25.3 67 +46 +46 опасность
перегрева
1005.6 1004.7
10 14.01 СЗ 4 н/о н/о +31.2 +25.3 71 +45 +45 опасность
перегрева
1005.8 1004.9
12 14.01 З 3 н/о н/о +29.0 +25.4 81 +43 +43 опасность
перегрева
1007.4 1006.5
13 14.01 З 2 н/о н/о +28.6 +25.4 83 +42 +42 опасность
перегрева
1008.0 1007.1 +34.8
15 14.01 З 3 н/о н/о +27.9 +25.7 88 +41 +41 опасность
перегрева
1007.8 1006.9
16 14.01 З 2 н/о н/о +27.3 +26.4 95 +42 +42 опасность
перегрева
1007.2 1006.3
18 14.01 ЮЗ 2 н/о н/о +26.7 +26.7 100 +41 +41 опасность
перегрева
1006.6 1005.7
19 14.01 ЮЗ 2 н/о н/о +26.5 +26.5 100 +40 +40 очень
душно
1006.5 1005.6
21 14.01 ЮЗ 2 н/о н/о +26.0 +26.0 100 +39 +39 очень
душно
1006.7 1005.8
22 14.01 ЮЗ 1 н/о н/о +25.8 +25.8 100 +38 +38 очень
душно
1007.4 1006.5
00 15.01 Ю 2 н/о н/о +31.6 +25.5 70 +46 +46 опасность
перегрева
1007.7 1006.8
01 15.01 Ю 3 н/о н/о +33.9 +23.0 53 +44 +44 опасность
перегрева
1007.1 1006.2 +25.7
03 15.01 С 4 н/о н/о +35.1 +26.4 61 +52 +52 опасность
перегрева
1006.6 1005.7
04 15.01 СЗ 4 н/о н/о +34.7 +26.3 62 +51 +51 опасность
перегрева
1006.1 1005.2
06 15.01 СЗ 6 н/о н/о +34.6 +25.7 60 +50 +50 опасность
перегрева
1004.3 1003.4
07 15.01 СЗ 6 н/о н/о +34.4 +25.8 61 +50 +50 опасность
перегрева
1003.1 1002.2
09 15.01 З 5 н/о н/о +31.5 +26.3 74 +48 +48 опасность
перегрева
1002.7 1001.8
10 15.01 СЗ 3 н/о н/о +30.7 +26.8 80 +48 +48 опасность
перегрева
1004.8 1003.9
12 15.01 С 5 н/о н/о +26.9 +26.9 100 +42 +42 опасность
перегрева
1006.4 1005.5
13 15.01 СЗ 3 н/о {туман} н/о +27.1 +27.1 100 +43 +43 опасность
перегрева
1006.2 1005.3 +37.2
15 15.01 ЮВ 1 н/о н/о +26.0 +25.8 99 +38 +38 очень
душно
1008.9 1008.0
16 15.01 ЮЗ 5 н/о туман н/о +23.8 +23.8 100 +32 +32 очень
душно
1009.6 1008.7
18 15.01 ЮЗ 4 н/о н/о +23.9 +23.9 100 +33 +33 очень
душно
1006.6 1005.7
19 15.01 ЮЗ 4 н/о в посл. час дождь {туман} н/о +24.1 +24.1 100 +33 +33 очень
душно
1006.1 1005.2
21 15.01 СВ 2 н/о н/о +24.5 +24.5 100 +34 +34 очень
душно
1007.1 1006.2
22 15.01 штиль 0 н/о н/о +24.8 +24.8 100 +35 +35 очень
душно
1006.7 1005.8
00 16.01 Ю 4 н/о н/о +27.3 +26.6 96 +42 +42 опасность
перегрева
1006.4 1005.5
01 16.01 Ю 4 н/о н/о +29.8 +26.2 81 +45 +45 опасность
перегрева
1006.7 1005.8 +23.8
03 16.01 В 3 н/о н/о +33.9 +25.0 60 +48 +48 опасность
перегрева
1006.1 1005.2
04 16.01 В 3 н/о н/о +34.1 +24.1 56 +46 +46 опасность
перегрева
1005.5 1004.6
06 16.01 С 4 н/о н/о +33.8 +26.0 64 +50 +50 опасность
перегрева
1004.1 1003.2
07 16.01 С 6 н/о н/о +33.6 +25.3 62 +48 +48 опасность
перегрева
1003.5 1002.6
09 16.01 СЗ 5 н/о н/о +32.7 +25.0 64 +46 +46 опасность
перегрева
1002.9 1002.0
10 16.01 СЗ 5 н/о н/о +30.9 +25.3 72 +45 +45 опасность
перегрева
1003.6 1002.7
12 16.01 СЗ 3 н/о н/о +29.2 +25.8 82 +44 +44 опасность
перегрева
1005.0 1004.1
13 16.01 СЗ 3 н/о н/о +28.8 +26.0 85 +43 +43 опасность
перегрева
1005.6 1004.7 +35.8
15 16.01 З 2 н/о н/о +28.8 +26.6 88 +45 +45 опасность
перегрева
1006.1 1005.2
16 16.01 З 3 н/о н/о +28.4 +26.2 88 +43 +43 опасность
перегрева
1005.5 1004.6
18 16.01 З 3 н/о н/о +28.7 +26.5 88 +44 +44 опасность
перегрева
1004.7 1003.8
19 16.01 З 2 н/о в посл. час дождь {туман} н/о +27.7 +27.0 96 +44 +44 опасность
перегрева
1005.1 1004.2
21 16.01 З 3 н/о н/о +27.7 +26.6 94 +43 +43 опасность
перегрева
1004.9 1004.0
22 16.01 ЮЗ 2 н/о н/о +27.6 +26.7 95 +43 +43 опасность
перегрева
1005.6 1004.7
00 17.01 ЮЗ 1 н/о н/о +29.9 +25.6 78 +44 +44 опасность
перегрева
1006.2 1005.3
01 17.01 СЗ 2 н/о н/о +30.4 +24.3 70 +42 +42 опасность
перегрева
1006.3 1005.4 +27.3
03 17.01 С 4 н/о н/о +31.8 +25.4 69 +46 +46 опасность
перегрева
1006.0 1005.1
04 17.01 С 6 н/о {туман} н/о +30.5 +26.0 77 +46 +46 опасность
перегрева
1005.7 1004.8
06 17.01 С 5 н/о н/о +32.2 +25.3 67 +46 +46 опасность
перегрева
1004.2 1003.3
07 17.01 СЗ 6 н/о {туман} н/о +31.9 +25.5 69 +46 +46 опасность
перегрева
1003.5 1002.6
09 17.01 СЗ 4 н/о н/о +30.3 +26.0 78 +46 +46 опасность
перегрева
1003.3 1002.4
10 17.01 З 3 н/о н/о +29.7 +26.1 81 +45 +45 опасность
перегрева
1003.3 1002.4
12 17.01 З 3 н/о н/о +28.6 +26.4 88 +44 +44 опасность
перегрева
1004.4 1003.5
13 17.01 З 3 н/о н/о +28.6 +26.4 88 +44 +44 опасность
перегрева
1004.9 1004.0 +33.1
15 17.01 СЗ 2 н/о н/о +27.9 +27.2 96 +44 +44 опасность
перегрева
1006.2 1005.3
16 17.01 З 2 н/о н/о +27.9 +27.0 95 +44 +44 опасность
перегрева
1005.8 1004.9
18 17.01 СЗ 2 н/о н/о +27.3 +27.3 100 +43 +43 опасность
перегрева
1004.6 1003.7
19 17.01 ЮЗ 2 н/о н/о +27.3 +27.3 100 +43 +43 опасность
перегрева
1004.4 1003.5
21 17.01 Ю 2 н/о н/о +26.8 +26.8 100 +42 +42 опасность
перегрева
1004.8 1003.9
22 17.01 ЮЗ 2 н/о н/о +27.1 +27.1 100 +43 +43 опасность
перегрева
1005.3 1004.4
00 18.01 З 4 н/о н/о +31.6 +25.2 69 +46 +46 опасность
перегрева
1005.5 1004.6
01 18.01 З 4 н/о н/о +33.4 +24.8 61 +47 +47 опасность
перегрева
1005.7 1004.8 +26.8
03 18.01 СЗ 6 н/о н/о +33.2 +25.7 65 +48 +48 опасность
перегрева
1005.2 1004.3
04 18.01 СЗ 6 н/о н/о +33.7 +25.4 62 +48 +48 опасность
перегрева
1005.1 1004.2
06 18.01 СЗ 6 н/о н/о +33.9 +25.9 63 +49 +49 опасность
перегрева
1004.1 1003.2
07 18.01 СЗ 6 н/о н/о +33.0 +26.3 68 +49 +49 опасность
перегрева
1003.6 1002.7
09 18.01 СЗ 5 н/о н/о +32.4 +25.7 68 +48 +48 опасность
перегрева
1003.2 1002.3
10 18.01 СЗ 5 н/о н/о +31.3 +26.1 74 +47 +47 опасность
перегрева
1003.4 1002.5
12 18.01 СЗ 2 н/о н/о +29.3 +25.5 80 +43 +43 опасность
перегрева
1006.6 1005.7
13 18.01 В 8 н/о н/о +25.0 +21.9 83 +32 +32 очень
душно
1009.7 1008.8 +34.5
15 18.01 С 4 н/о н/о +27.9 +21.0 66 +35 +35 очень
душно
1006.1 1005.2
16 18.01 СВ 1 н/о {туман} н/о +26.9 +22.5 77 +35 +35 очень
душно
1005.1 1004.2
18 18.01 ЮЗ 4 н/о н/о +26.7 +23.4 82 +36 +36 очень
душно
1004.7 1003.8
19 18.01 ЮЗ 5 н/о {туман} н/о +27.1 +24.4 85 +38 +38 очень
душно
1004.5 1003.6
21 18.01 ЮЗ 3 н/о н/о +26.6 +23.7 84 +36 +36 очень
душно
1005.3 1004.4
22 18.01 В 3 н/о н/о +26.6 +24.3 87 +37 +37 очень
душно
1007.0 1006.1
00 19.01 В 4 н/о н/о +30.1 +23.3 67 +41 +41 опасность
перегрева
1008.0 1007.1
01 19.01 В 3 н/о н/о +31.4 +22.7 60 +41 +41 опасность
перегрева
1007.5 1006.6 +23.1
03 19.01 СВ 3 н/о н/о +34.9 +23.2 51 +45 +45 опасность
перегрева
1006.5 1005.6
04 19.01 СВ 4 н/о н/о +35.6 +23.2 49 +46 +46 опасность
перегрева
1005.6 1004.7
06 19.01 С 4 н/о н/о +35.2 +25.4 57 +50 +50 опасность
перегрева
1003.8 1002.9
07 19.01 СЗ 5 н/о н/о +34.1 +24.9 59 +48 +48 опасность
перегрева
1003.0 1002.1
09 19.01 СЗ 6 н/о н/о +32.7 +25.2 65 +47 +47 опасность
перегрева
1002.7 1001.8
10 19.01 СЗ 5 н/о н/о +31.4 +25.0 69 +45 +45 опасность
перегрева
1002.8 1001.9
12 19.01 З 4 н/о н/о +29.6 +25.4 78 +43 +43 опасность
перегрева
1004.1 1003.2
13 19.01 З 5 н/о н/о +29.4 +26.2 83 +45 +45 опасность
перегрева
1004.7 1003.8 +36.4
15 19.01 З 4 н/о н/о +29.4 +26.6 85 +45 +45 опасность
перегрева
1005.3 1004.4
16 19.01 З 2 н/о н/о +29.0 +26.6 87 +45 +45 опасность
перегрева
1004.7 1003.8
18 19.01 З 4 н/о н/о +28.5 +27.1 92 +45 +45 опасность
перегрева
1003.9 1003.0
19 19.01 З 3 н/о н/о +28.1 +27.0 94 +44 +44 опасность
перегрева
1003.5 1002.6
21 19.01 В 10 н/о н/о +24.0 +20.3 80 +30 +30 очень
душно
1007.2 1006.3
22 19.01 С 5 н/о туман н/о +23.4 +20.7 85 +31 +31 очень
душно
1006.2 1005.3
00 20.01 З 3 н/о н/о +26.3 +24.2 88 +37 +37 очень
душно
1005.8 1004.9
01 20.01 СЗ 4 н/о {туман} н/о +28.5 +24.5 79 +40 +40 очень
душно
1006.5 1005.6 +23.4

 

Местоположение метеостанции Mandora (Западная Австралия, Австралия): широта -19.73 долгота 120.85 высота над уровнем моря 8 м.

В архиве по умолчанию представлена погода в Mandora за последнюю неделю. Архивные данные за месяц целиком и за предыдущие месяцы, начиная с января 2011 года, Вы можете получить, выбрав интересующий диапазон дат из раскрывающегося списка и нажав кнопку "Ввод!".

Внимание! Время в таблицах - всемирное. Для получения местного времени необходимо прибавить поправку, которая в Mandora равна 8 ч.

Смотрите также архив погоды в соседних городах и на ближайших метеорологических станциях:

Погода в Marble Bar (Западная Австралия, Австралия) (198 км)
Погода в Port Hedland Apardoo (Западная Австралия, Австралия) (242 км)
Погода в Broome Airport (Западная Австралия, Австралия) (246 км)
Погода в West Roebuck (Западная Австралия, Австралия) (256 км)
Погода в Telfer Aero (Западная Австралия, Австралия) (262 км)
Погода в Rowley Shoals (Западная Австралия, Австралия) (316 км)
Погода в Curtin Aero (Западная Австралия, Австралия) (394 км)
Погода в Derby Aero (Северная территория, Австралия) (397 км)
Погода в Roebourne Aero (Западная Австралия, Австралия) (402 км)
Погода в Newman Aero (Западная Австралия, Австралия) (423 км)

Пояснения к столбцам:

Ветер - указаны скорость ветра в м/с - средняя за 10 мин, порывы в срок и между сроками (в фигурных скобках) и направление, откуда дует ветер: С - северный, СВ - северо-восточный, В - восточный, ЮВ - юго-восточный, Ю - южный, ЮЗ - юго-западный, З - западный, СЗ - северо-западный.
Видимость - горизонтальная дальность видимости в метрах или километрах. При видимости от 1 до 10 км при отсутствии осадков обычно наблюдается дымка, при ухудшении видимости до 1 км и менее - туман. В сухую погоду видимость может ухудшаться дымом, пылью или мглою.
Явления - указаны атмосферные явления, наблюдавшиеся в срок или в последний час перед сроком; фигурными скобками обозначены явления, наблюдавшиеся между сроками (за 1-3 часа до срока); квадратными скобками обозначены град или гололедные отложения с указанием их диаметра в мм.
Облачность - указаны через наклонную черту общая и нижняя облачность в баллах и высота нижней границы облаков в метрах; квадратными скобками обозначены формы облаков: Ci - перистые, Cs - перисто-слоистые, Cc - перисто-кучевые, Ac - высококучевые, As - высокослоистые, Sc - слоисто-кучевые, Ns - слоисто-дождевые, Cu - кучевые, Cb - кучево-дождевые. Подробнее классификацию облаков см. в Атласе облаков (PDF).
T - Температура воздуха - температура, измеренная на высоте 2 м над землей.
Td - Температура точки росы - температура, при понижении до которой содержащийся в воздухе водяной пар достигнет насыщения.
f - Относительная влажность воздуха - влажноcть воздуха, измеренная на высоте 2 м над землей.
Te - Эффективная температура - температура, которую ощущает одетый по сезону человек в тени. Характеристика душности погоды. При расчете учитывается влияние влажности воздуха и скорости ветра на теплоощущения человека.
Tes - Эффективная температура на солнце - температура, которую ощущает человек, с поправкой на солнечный нагрев. Характеристика знойности погоды. Зависит от высоты солнца над горизонтом, облачности и скорости ветра. Ночью, в пасмурную погоду, а также при ветре 12 м/с и более поправка равна нулю.
P - Атмосферное давление - приведенное к уровню моря атмосферное давление.
Po - Атмосферное давление - измеренное на уровне метеостанции атмосферное давление.
Tmin - Минимальная температура - минимум температуры воздуха на высоте 2 м над землей.
Tmax - Максимальная температура - максимум температуры воздуха на высоте 2 м над землей.
R - Количество осадков - Количество выпавших осадков за период времени, мм. При наведении курсора мыши на число - период времени, за который выпало указанное количество осадков.
R24 - Количество осадков - Количество выпавших осадков за 24 часа, мм.
S - Снежный покров - Высота снежного покрова, см. При наведении курсора мыши на число - состояние снежного покрова и степень покрытия местности в баллах.